Location: Puketoi
(40.5833°S, 176.0167°E)
Time: 14:27:52
(UTC+00:00)

Cosmos 1300 - Pass Details

Date: 08 February 2023
Orbit: 497 x 500 km, 82.5° (Epoch: 22 March)

Event Time Altitude Azimuth Distance (km) Brightness Sun altitude
Rises 15:04:21 0° 186° (S) 2,630 6.9 -24.0°
Reaches altitude 10° 15:06:30 10° 183° (S) 1,738 5.9 -23.7°
Enters shadow 15:10:15 71° 106° (ESE) 541 2.8 -23.2°
